,,,PA_Meas_PMT16A,,PR_Meas_QMR101_102,,RH_Meas_QMH101,,SR_Meas_QMS101,,TA_Meas_QMH101,,GenWind,,GenWind,
date,time,status,PA,status,PR,status,RH,status,SR,status,TA,status,DirAvg,status,SpdAvg,
2008-11-06, 00:00:04,VALID,1003.59,VALID,0,VALID,88.0602,VALID,0,VALID,25.5727,VALID,1,VALID,1.01797,
2008-11-06, 00:01:04,VALID,1003.59,VALID,0,VALID,88.3424,VALID,0,VALID,25.4948,VALID,343,VALID,0.691797,
2008-11-06, 00:02:04,VALID,1003.55,VALID,0,VALID,88.7544,VALID,0,VALID,25.4363,VALID,359,VALID,0.855078,
2008-11-06, 00:03:04,VALID,1003.52,VALID,0,VALID,88.8231,VALID,0,VALID,25.3974,VALID,352,VALID,0.705469,
2008-11-06, 00:04:04,VALID,1003.51,VALID,0,VALID,88.9299,VALID,0,VALID,25.3974,VALID,338,VALID,1.32773,
2008-11-06, 00:05:04,VALID,1003.47,VALID,0,VALID,88.6552,VALID,0,VALID,25.4558,VALID,353,VALID,0.740234,
2008-11-06, 00:06:04,VALID,1003.45,VALID,0,VALID,88.5789,VALID,0,VALID,25.4558,VALID,21,VALID,1.38906,
2008-11-06, 00:07:04,VALID,1003.42,VALID,0,VALID,88.5713,VALID,0,VALID,25.4753,VALID,5,VALID,0.542188,
2008-11-06, 00:08:04,VALID,1003.38,VALID,0,VALID,88.5866,VALID,0,VALID,25.4558,VALID,11,VALID,0.780078,
2008-11-06, 00:09:04,VALID,1003.37,VALID,0,VALID,88.5332,VALID,0,VALID,25.4772,VALID,348,VALID,0.810547,
2008-11-06, 00:10:04,VALID,1003.35,VALID,0,VALID,88.4721,VALID,0,VALID,25.4558,VALID,20,VALID,0.6375,
2008-11-06, 00:11:04,VALID,1003.33,VALID,0,VALID,88.5103,VALID,0,VALID,25.4363,VALID,359,VALID,1.10898,
2008-11-06, 00:12:04,VALID,1003.27,VALID,0,VALID,88.64,VALID,0,VALID,25.3779,VALID,343,VALID,1.35469,
2008-11-06, 00:13:04,VALID,1003.27,VALID,0,VALID,88.4798,VALID,0,VALID,25.4363,VALID,348,VALID,1.15313,
2008-11-06, 00:14:04,VALID,1003.23,VALID,0,VALID,88.4035,VALID,0,VALID,25.4558,VALID,355,VALID,0.828906,
2008-11-06, 00:15:04,VALID,1003.2,VALID,0,VALID,88.5103,VALID,0,VALID,25.4169,VALID,360,VALID,1.09258,
2008-11-06, 00:16:04,VALID,1003.19,VALID,0,VALID,88.6781,VALID,0,VALID,25.3779,VALID,355,VALID,0.7375,
2008-11-06, 00:17:04,VALID,1003.18,VALID,0,VALID,88.7239,VALID,0,VALID,25.339,VALID,18,VALID,0.848828,
2008-11-06, 00:18:04,VALID,1003.19,VALID,0,VALID,88.8688,VALID,0,VALID,25.3195,VALID,17,VALID,0.784375,
2008-11-06, 00:19:04,VALID,1003.14,VALID,0,VALID,89.0214,VALID,0,VALID,25.2806,VALID,349,VALID,0.608594,
2008-11-06, 00:20:04,VALID,1003.14,VALID,0,VALID,89.1206,VALID,0,VALID,25.2416,VALID,48,VALID,0.540234,
2008-11-06, 00:21:04,VALID,1003.11,VALID,0,VALID,89.2884,VALID,0,VALID,25.2027,VALID,34,VALID,0.508203,
2008-11-06, 00:22:04,VALID,1003.11,VALID,0,VALID,89.3876,VALID,0,VALID,25.2027,VALID,28,VALID,0.308594,
2008-11-06, 00:23:04,VALID,1003.09,VALID,0,VALID,89.3037,VALID,0,VALID,25.2221,VALID,37,VALID,1.90703,
2008-11-06, 00:24:04,VALID,1003.06,VALID,0,VALID,88.9833,VALID,0,VALID,25.3195,VALID,15,VALID,0.465234,
2008-11-06, 00:25:04,VALID,1003.03,VALID,0,VALID,88.8307,VALID,0,VALID,25.3195,VALID,20,VALID,0.560156,
2008-11-06, 00:26:04,VALID,1003.03,VALID,0,VALID,88.9604,VALID,0,VALID,25.2611,VALID,354,VALID,0.54375,
2008-11-06, 00:27:04,VALID,1003,VALID,0,VALID,89.0061,VALID,0,VALID,25.2611,VALID,2,VALID,0.900391,
2008-11-06, 00:28:04,VALID,1002.97,VALID,0,VALID,88.9985,VALID,0,VALID,25.2825,VALID,353,VALID,0.833203,
2008-11-06, 00:29:04,VALID,1002.97,VALID,0,VALID,88.968,VALID,0,VALID,25.2611,VALID,354,VALID,0.669531,
2008-11-06, 00:30:04,VALID,1002.93,VALID,0,VALID,89.0443,VALID,0,VALID,25.2825,VALID,353,VALID,0.80625,
2008-11-06, 00:31:04,VALID,1002.9,VALID,0,VALID,89.113,VALID,0,VALID,25.2416,VALID,351,VALID,0.641016,
2008-11-06, 00:32:04,VALID,1002.86,VALID,0,VALID,89.2121,VALID,0,VALID,25.2007,VALID,354,VALID,0.797656,
2008-11-06, 00:33:04,VALID,1002.87,VALID,0,VALID,89.2503,VALID,0,VALID,25.2221,VALID,360,VALID,0.849219,
2008-11-06, 00:34:04,VALID,1002.87,VALID,0,VALID,89.1511,VALID,0,VALID,25.2221,VALID,6,VALID,0.636719,
2008-11-06, 00:35:04,VALID,1002.84,VALID,0,VALID,89.1206,VALID,0,VALID,25.2416,VALID,357,VALID,0.550781,
2008-11-06, 00:36:04,VALID,1002.82,VALID,0,VALID,89.2121,VALID,0,VALID,25.224,VALID,357,VALID,0.535547,
2008-11-06, 00:37:04,VALID,1002.81,VALID,0,VALID,89.3952,VALID,0,VALID,25.1442,VALID,358,VALID,0.444141,
2008-11-06, 00:38:04,VALID,1002.85,VALID,0,VALID,89.4715,VALID,0,VALID,25.1248,VALID,14,VALID,0.429297,
2008-11-06, 00:39:04,VALID,1002.82,VALID,0,VALID,89.708,VALID,0,VALID,25.1461,VALID,30,VALID,1.12461,
2008-11-06, 00:40:04,VALID,1002.84,VALID,0,VALID,89.6927,VALID,0,VALID,25.1248,VALID,333,VALID,0.702734,
2008-11-06, 00:41:04,VALID,1002.86,VALID,0,VALID,89.6622,VALID,0,VALID,25.1248,VALID,16,VALID,0.732813,
2008-11-06, 00:42:04,VALID,1002.86,VALID,0,VALID,89.502,VALID,0,VALID,25.1637,VALID,356,VALID,0.429688,
2008-11-06, 00:43:04,VALID,1002.86,VALID,0,VALID,89.4486,VALID,0,VALID,25.1637,VALID,353,VALID,0.266016,
2008-11-06, 00:44:04,VALID,1002.86,VALID,0,VALID,89.4028,VALID,0,VALID,25.1637,VALID,353,VALID,0.185547,
2008-11-06, 00:45:04,VALID,1002.84,VALID,0,VALID,89.4181,VALID,0,VALID,25.1442,VALID,353,VALID,0.547266,
2008-11-06, 00:46:04,VALID,1002.8,VALID,0,VALID,89.441,VALID,0,VALID,25.1248,VALID,348,VALID,0.429688,
2008-11-06, 00:47:04,VALID,1002.81,VALID,0,VALID,89.4715,VALID,0,VALID,25.1053,VALID,350,VALID,0.370313,
2008-11-06, 00:48:04,VALID,1002.74,VALID,0,VALID,89.5325,VALID,0,VALID,25.1248,VALID,345,VALID,0.342969,
2008-11-06, 00:49:04,VALID,1002.73,VALID,0,VALID,89.4334,VALID,0,VALID,25.1442,VALID,345,VALID,0.416406,
2008-11-06, 00:50:04,VALID,1002.72,VALID,0,VALID,89.4105,VALID,0,VALID,25.1442,VALID,359,VALID,0.412891,
2008-11-06, 00:51:04,VALID,1002.71,VALID,0,VALID,89.4334,VALID,0,VALID,25.1248,VALID,351,VALID,0.423438,
2008-11-06, 00:52:04,VALID,1002.68,VALID,0,VALID,89.4028,VALID,0,VALID,25.1461,VALID,352,VALID,0.267188,
2008-11-06, 00:53:04,VALID,1002.69,VALID,0,VALID,89.4486,VALID,0,VALID,25.1053,VALID,352,VALID,0.369141,
2008-11-06, 00:54:04,VALID,1002.67,VALID,0,VALID,89.5554,VALID,0,VALID,25.1053,VALID,26,VALID,0.707422,
2008-11-06, 00:55:04,VALID,1002.69,VALID,0,VALID,89.4486,VALID,0,VALID,25.1267,VALID,18,VALID,0.408984,
2008-11-06, 00:56:04,VALID,1002.67,VALID,0,VALID,89.5097,VALID,0,VALID,25.0469,VALID,18,VALID,0.237109,
2008-11-06, 00:57:04,VALID,1002.68,VALID,0,VALID,89.6546,VALID,0,VALID,24.9904,VALID,18,VALID,0,
2008-11-06, 00:58:04,VALID,1002.7,VALID,0,VALID,89.7919,VALID,0,VALID,24.8911,VALID,18,VALID,0.151562,
2008-11-06, 00:59:04,VALID,1002.68,VALID,0,VALID,90.2649,VALID,0,VALID,24.8522,VALID,8,VALID,0.366797,
2008-11-06, 01:00:04,VALID,1002.65,VALID,0,VALID,90.2344,VALID,0,VALID,24.8151,VALID,7,VALID,0.04375,
2008-11-06, 01:01:04,VALID,1002.62,VALID,0,VALID,90.3641,VALID,0,VALID,24.7353,VALID,7,VALID,0.255469,
2008-11-06, 01:02:04,VALID,1002.6,VALID,0,VALID,90.7608,VALID,0,VALID,24.6574,VALID,357,VALID,0.690625,
2008-11-06, 01:03:04,VALID,1002.6,VALID,0,VALID,91.2338,VALID,0,VALID,24.6769,VALID,342,VALID,0.407031,
2008-11-06, 01:04:04,VALID,1002.57,VALID,0,VALID,91.0812,VALID,0,VALID,24.638,VALID,343,VALID,0.424219,
2008-11-06, 01:05:04,VALID,1002.57,VALID,0,VALID,91.4092,VALID,0,VALID,24.6009,VALID,357,VALID,0.574609,
2008-11-06, 01:06:04,VALID,1002.57,VALID,0,VALID,91.5313,VALID,0,VALID,24.5601,VALID,5,VALID,0.941406,
2008-11-06, 01:07:04,VALID,1002.56,VALID,0,VALID,91.928,VALID,0,VALID,24.5601,VALID,335,VALID,0.653906,
2008-11-06, 01:08:04,VALID,1002.57,VALID,0,VALID,91.9509,VALID,0,VALID,24.638,VALID,352,VALID,0.966797,
2008-11-06, 01:09:04,VALID,1002.56,VALID,0,VALID,91.5771,VALID,0,VALID,24.6769,VALID,355,VALID,0.671875,
2008-11-06, 01:10:04,VALID,1002.58,VALID,0,VALID,91.455,VALID,0,VALID,24.6964,VALID,355,VALID,0.447266,
2008-11-06, 01:11:04,VALID,1002.57,VALID,0,VALID,91.5313,VALID,0,VALID,24.6945,VALID,3,VALID,0.699609,
2008-11-06, 01:12:04,VALID,1002.56,VALID,0,VALID,91.4932,VALID,0,VALID,24.7743,VALID,21,VALID,0.508984,
2008-11-06, 01:13:04,VALID,1002.53,VALID,0,VALID,91.3482,VALID,0,VALID,24.7724,VALID,347,VALID,0.587891,
2008-11-06, 01:14:04,VALID,1002.54,VALID,0,VALID,91.1499,VALID,0,VALID,24.8132,VALID,344,VALID,0.726953,
2008-11-06, 01:15:04,VALID,1002.53,VALID,0,VALID,90.9973,VALID,0,VALID,24.8735,VALID,356,VALID,0.589063,
2008-11-06, 01:16:04,VALID,1002.52,VALID,0,VALID,90.86,VALID,0,VALID,24.8522,VALID,358,VALID,0.540625,
2008-11-06, 01:17:04,VALID,1002.52,VALID,0,VALID,90.9591,VALID,0,VALID,24.854,VALID,358,VALID,0.482812,
2008-11-06, 01:18:04,VALID,1002.52,VALID,0,VALID,91.0659,VALID,0,VALID,24.8132,VALID,354,VALID,0.526953,
2008-11-06, 01:19:04,VALID,1002.52,VALID,0,VALID,90.9744,VALID,0,VALID,24.8132,VALID,15,VALID,0.681641,
2008-11-06, 01:20:04,VALID,1002.51,VALID,0,VALID,90.921,VALID,0,VALID,24.8151,VALID,22,VALID,0.627344,
2008-11-06, 01:21:04,VALID,1002.5,VALID,0,VALID,91.1804,VALID,0,VALID,24.7937,VALID,11,VALID,0.539063,
2008-11-06, 01:22:04,VALID,1002.5,VALID,0,VALID,91.0278,VALID,0,VALID,24.854,VALID,12,VALID,0.545313,
2008-11-06, 01:23:04,VALID,1002.47,VALID,0,VALID,90.8523,VALID,0,VALID,24.7937,VALID,12,VALID,0.621484,
2008-11-06, 01:24:05,VALID,1002.47,VALID,0,VALID,90.9363,VALID,0,VALID,24.7353,VALID,12,VALID,0.613281,
2008-11-06, 01:25:05,VALID,1002.47,VALID,0,VALID,91.3558,VALID,0,VALID,24.8132,VALID,12,VALID,0.832031,
2008-11-06, 01:26:05,VALID,1002.46,VALID,0,VALID,90.7608,VALID,0.100563,VALID,24.8716,VALID,3,VALID,0.651953,
2008-11-06, 01:27:05,VALID,1002.47,VALID,0,VALID,90.5777,VALID,0,VALID,24.9125,VALID,30,VALID,0.567187,
2008-11-06, 01:28:05,VALID,1002.45,VALID,0,VALID,90.7074,VALID,0,VALID,24.8911,VALID,18,VALID,0.307422,
2008-11-06, 01:29:05,VALID,1002.49,VALID,0,VALID,90.715,VALID,0,VALID,24.8892,VALID,45,VALID,0.288672,
2008-11-06, 01:30:05,VALID,1002.47,VALID,0,VALID,90.6464,VALID,0,VALID,24.93,VALID,46,VALID,0.00273437,
2008-11-06, 01:31:05,VALID,1002.49,VALID,0,VALID,90.4251,VALID,0,VALID,24.9319,VALID,46,VALID,0.128125,
2008-11-06, 01:32:05,VALID,1002.51,VALID,0,VALID,90.387,VALID,0,VALID,24.8716,VALID,46,VALID,0.508984,
2008-11-06, 01:33:05,VALID,1002.51,VALID,0,VALID,90.5243,VALID,0,VALID,24.8327,VALID,46,VALID,0.276172,
2008-11-06, 01:34:05,VALID,1002.49,VALID,0,VALID,90.7074,VALID,0,VALID,24.7937,VALID,46,VALID,0.219141,
2008-11-06, 01:35:05,VALID,1002.49,VALID,0,VALID,90.8752,VALID,0,VALID,24.7937,VALID,46,VALID,0.278906,
2008-11-06, 01:36:05,VALID,1002.46,VALID,0,VALID,90.9591,VALID,0,VALID,24.7743,VALID,46,VALID,0.31875,
2008-11-06, 01:37:05,VALID,1002.43,VALID,0,VALID,91.0431,VALID,0,VALID,24.7548,VALID,46,VALID,0.100391,
2008-11-06, 01:38:05,VALID,1002.43,VALID,0,VALID,91.2109,VALID,0,VALID,24.7548,VALID,63,VALID,0.537109,
2008-11-06, 01:39:05,VALID,1002.39,VALID,0,VALID,91.2719,VALID,0,VALID,24.7937,VALID,67,VALID,0.335938,
2008-11-06, 01:40:05,VALID,1002.37,VALID,0,VALID,91.0354,VALID,0,VALID,24.8327,VALID,67,VALID,0.394922,
2008-11-06, 01:41:05,VALID,1002.36,VALID,0,VALID,90.9057,VALID,0,VALID,24.854,VALID,67,VALID,0.0347656,
2008-11-06, 01:42:05,VALID,1002.36,VALID,0,VALID,90.5777,VALID,0,VALID,24.8132,VALID,66,VALID,0.434375,
2008-11-06, 01:43:05,VALID,1002.32,VALID,0,VALID,90.8371,VALID,0,VALID,24.7956,VALID,66,VALID,0.219922,
2008-11-06, 01:44:05,VALID,1002.31,VALID,0,VALID,91.0965,VALID,0,VALID,24.7743,VALID,66,VALID,0.208203,
2008-11-06, 01:45:05,VALID,1002.31,VALID,0,VALID,91.1346,VALID,0,VALID,24.7956,VALID,55,VALID,0.358594,
2008-11-06, 01:46:05,VALID,1002.31,VALID,0,VALID,91.0125,VALID,0,VALID,24.7937,VALID,55,VALID,0.326172,
2008-11-06, 01:47:05,VALID,1002.28,VALID,0,VALID,91.0431,VALID,0,VALID,24.7548,VALID,18,VALID,0.964453,
2008-11-06, 01:48:05,VALID,1002.23,VALID,0,VALID,91.2262,VALID,0,VALID,24.8151,VALID,8,VALID,0.515625,
2008-11-06, 01:49:05,VALID,1002.2,VALID,0,VALID,90.7989,VALID,0,VALID,24.8327,VALID,5,VALID,0.648438,
2008-11-06, 01:50:05,VALID,1002.17,VALID,0,VALID,90.8142,VALID,0,VALID,24.8522,VALID,14,VALID,0.591797,
2008-11-06, 01:51:05,VALID,1002.15,VALID,0,VALID,90.8447,VALID,0,VALID,24.8892,VALID,21,VALID,0.773438,
2008-11-06, 01:52:05,VALID,1002.11,VALID,0,VALID,90.5624,VALID,0,VALID,24.9495,VALID,18,VALID,0.717578,
2008-11-06, 01:53:05,VALID,1002.1,VALID,0,VALID,90.509,VALID,0,VALID,25.006,VALID,347,VALID,0.492578,
2008-11-06, 01:54:05,VALID,1002.08,VALID,0,VALID,90.0589,VALID,0.100563,VALID,25.1618,VALID,16,VALID,1.40313,
2008-11-06, 01:55:05,VALID,1002.06,VALID,0,VALID,89.4105,VALID,0,VALID,25.3176,VALID,16,VALID,0.774219,
2008-11-06, 01:56:05,VALID,1002.04,VALID,0,VALID,89.0977,VALID,0,VALID,25.339,VALID,16,VALID,0.494531,
2008-11-06, 01:57:05,VALID,1001.99,VALID,0,VALID,88.9604,VALID,0,VALID,25.3584,VALID,13,VALID,0.694531,
2008-11-06, 01:58:05,VALID,1001.99,VALID,0,VALID,88.7468,VALID,0.100563,VALID,25.3779,VALID,336,VALID,0.751172,
2008-11-06, 01:59:05,VALID,1001.95,VALID,0,VALID,88.5789,VALID,0,VALID,25.3584,VALID,358,VALID,0.592578,
2008-11-06, 02:00:05,VALID,1001.95,VALID,0,VALID,88.64,VALID,0,VALID,25.3195,VALID,13,VALID,0.632031,
2008-11-06, 02:01:05,VALID,1001.92,VALID,0,VALID,88.7925,VALID,0,VALID,25.2806,VALID,13,VALID,0.322656,
2008-11-06, 02:02:05,VALID,1001.92,VALID,0,VALID,88.8841,VALID,0,VALID,25.2435,VALID,10,VALID,0.589844,
2008-11-06, 02:03:05,VALID,1001.89,VALID,0,VALID,89.296,VALID,0,VALID,25.1832,VALID,354,VALID,0.530078,
2008-11-06, 02:04:05,VALID,1001.89,VALID,0,VALID,89.1664,VALID,0,VALID,25.1248,VALID,14,VALID,0.208203,
2008-11-06, 02:05:05,VALID,1001.92,VALID,0,VALID,89.3494,VALID,0,VALID,25.0877,VALID,63,VALID,0.348828,
2008-11-06, 02:06:05,VALID,1001.93,VALID,0,VALID,89.6088,VALID,0,VALID,24.9885,VALID,62,VALID,0.337109,
2008-11-06, 02:07:05,VALID,1001.96,VALID,0,VALID,89.9292,VALID,0,VALID,24.9495,VALID,59,VALID,0.292578,
2008-11-06, 02:08:05,VALID,1001.96,VALID,0,VALID,90.3107,VALID,0,VALID,24.9106,VALID,46,VALID,0.486719,
2008-11-06, 02:09:05,VALID,1001.99,VALID,0,VALID,90.2954,VALID,0,VALID,24.9514,VALID,34,VALID,0.957812,
2008-11-06, 02:10:05,VALID,1001.99,VALID,0,VALID,90.3946,VALID,0,VALID,24.969,VALID,31,VALID,1.04219,
2008-11-06, 02:11:05,VALID,1001.95,VALID,0,VALID,90.1123,VALID,0,VALID,25.0469,VALID,6,VALID,0.744141,
2008-11-06, 02:12:05,VALID,1001.9,VALID,0,VALID,89.9369,VALID,0,VALID,25.1248,VALID,5,VALID,0.196094,
2008-11-06, 02:13:05,VALID,1001.87,VALID,0,VALID,89.6393,VALID,0,VALID,25.2027,VALID,19,VALID,0.391406,
2008-11-06, 02:14:05,VALID,1001.83,VALID,0,VALID,89.2274,VALID,0,VALID,25.2806,VALID,14,VALID,1.38203,
2008-11-06, 02:15:05,VALID,1001.86,VALID,0,VALID,88.8383,VALID,0,VALID,25.3974,VALID,22,VALID,1.02969,
2008-11-06, 02:16:05,VALID,1001.83,VALID,0,VALID,88.3501,VALID,0,VALID,25.4539,VALID,18,VALID,1.32578,
2008-11-06, 02:17:05,VALID,1001.85,VALID,0,VALID,87.8847,VALID,0,VALID,25.5513,VALID,60,VALID,1.57773,
2008-11-06, 02:18:05,VALID,1001.85,VALID,0,VALID,87.3965,VALID,0,VALID,25.6895,VALID,32,VALID,1.84766,
2008-11-06, 02:19:05,VALID,1001.82,VALID,0,VALID,86.3132,VALID,0,VALID,25.7499,VALID,24,VALID,2.06758,
2008-11-06, 02:20:05,VALID,1001.86,VALID,0,VALID,86.3818,VALID,0,VALID,25.748,VALID,18,VALID,0.6375,
2008-11-06, 02:21:05,VALID,1001.8,VALID,0,VALID,86.1148,VALID,0,VALID,25.748,VALID,353,VALID,1.45938,
2008-11-06, 02:22:05,VALID,1001.83,VALID,0,VALID,85.8096,VALID,0,VALID,25.6895,VALID,326,VALID,0.859766,
2008-11-06, 02:23:05,VALID,1001.8,VALID,0,VALID,86.0156,VALID,0,VALID,25.67,VALID,339,VALID,0.951563,
2008-11-06, 02:24:05,VALID,1001.79,VALID,0,VALID,85.9546,VALID,0,VALID,25.6116,VALID,25,VALID,1.08359,
2008-11-06, 02:25:05,VALID,1001.78,VALID,0,VALID,86.0767,VALID,0,VALID,25.5746,VALID,33,VALID,1.01992,
2008-11-06, 02:26:05,VALID,1001.8,VALID,0,VALID,85.1993,VALID,0,VALID,25.4558,VALID,37,VALID,0.676562,
2008-11-06, 02:27:05,VALID,1001.82,VALID,0,VALID,85.4053,VALID,0,VALID,25.4363,VALID,44,VALID,0.236328,
2008-11-06, 02:28:05,VALID,1001.85,VALID,0,VALID,85.0391,VALID,0,VALID,25.3993,VALID,35,VALID,0.687109,
2008-11-06, 02:29:05,VALID,1001.93,VALID,0,VALID,84.6043,VALID,0,VALID,25.4188,VALID,21,VALID,0.803125,
2008-11-06, 02:30:05,VALID,1001.99,VALID,0,VALID,84.5814,VALID,0,VALID,25.3565,VALID,82,VALID,0.985156,
2008-11-06, 02:31:05,VALID,1002.05,VALID,0,VALID,84.589,VALID,0,VALID,25.3584,VALID,62,VALID,0.646094,
2008-11-06, 02:32:05,VALID,1002.04,VALID,0,VALID,84.0092,VALID,0,VALID,25.339,VALID,80,VALID,0.628125,
2008-11-06, 02:33:05,VALID,1002.06,VALID,0,VALID,83.3684,VALID,0,VALID,25.339,VALID,106,VALID,0.8625,
2008-11-06, 02:34:05,VALID,1002.1,VALID,0,VALID,83.4218,VALID,0,VALID,25.3779,VALID,123,VALID,1.21094,
2008-11-06, 02:35:05,VALID,1002.17,VALID,0,VALID,83.1472,VALID,0,VALID,25.337,VALID,135,VALID,2.08672,
2008-11-06, 02:36:05,VALID,1002.21,VALID,0,VALID,83.7193,VALID,0,VALID,25.339,VALID,138,VALID,2.24688,
2008-11-06, 02:37:05,VALID,1002.14,VALID,0,VALID,84.383,VALID,0,VALID,25.2611,VALID,109,VALID,2.43711,
2008-11-06, 02:38:05,VALID,1002.08,VALID,0,VALID,85.8249,VALID,0,VALID,25.1267,VALID,138,VALID,0.617578,
2008-11-06, 02:39:05,VALID,1002.05,VALID,0,VALID,86.4276,VALID,0,VALID,24.9106,VALID,116,VALID,1.71133,
2008-11-06, 02:40:05,VALID,1002.01,VALID,0.5,VALID,87.4499,VALID,0,VALID,24.7159,VALID,144,VALID,1.9832,
2008-11-06, 02:41:05,VALID,1002.03,VALID,0,VALID,88.3729,VALID,0,VALID,24.599,VALID,132,VALID,1.70195,
2008-11-06, 02:42:05,VALID,1002.06,VALID,0,VALID,89.4715,VALID,0,VALID,24.4822,VALID,141,VALID,1.35625,
2008-11-06, 02:43:05,VALID,1002.09,VALID,0,VALID,89.9826,VALID,0,VALID,24.3636,VALID,146,VALID,1.4125,
2008-11-06, 02:44:05,VALID,1002.11,VALID,0,VALID,90.3641,VALID,0.100563,VALID,24.3265,VALID,112,VALID,1.21602,
2008-11-06, 02:45:05,VALID,1002.09,VALID,0,VALID,90.5014,VALID,0,VALID,24.2875,VALID,120,VALID,1.68594,
2008-11-06, 02:46:05,VALID,1002.03,VALID,0,VALID,90.6311,VALID,0,VALID,24.2486,VALID,131,VALID,1.08281,
2008-11-06, 02:47:05,VALID,1002.01,VALID,0,VALID,90.5701,VALID,0,VALID,24.2291,VALID,155,VALID,1.40469,
2008-11-06, 02:48:05,VALID,1001.97,VALID,0,VALID,90.2725,VALID,0,VALID,24.2291,VALID,188,VALID,1.52461,
2008-11-06, 02:49:05,VALID,1001.97,VALID,0,VALID,90.4785,VALID,0,VALID,24.2291,VALID,206,VALID,0.472266,
2008-11-06, 02:50:05,VALID,1001.95,VALID,0,VALID,90.181,VALID,0,VALID,24.1902,VALID,185,VALID,0.837109,
2008-11-06, 02:51:05,VALID,1001.94,VALID,0,VALID,90.4099,VALID,0,VALID,24.1707,VALID,168,VALID,0.28125,
2008-11-06, 02:52:05,VALID,1001.93,VALID,0,VALID,90.6235,VALID,0,VALID,24.1707,VALID,168,VALID,0.05625,
2008-11-06, 02:53:05,VALID,1001.92,VALID,0,VALID,90.9363,VALID,0,VALID,24.1707,VALID,167,VALID,0.559375,
2008-11-06, 02:54:05,VALID,1001.88,VALID,0,VALID,91.4245,VALID,0.100563,VALID,24.1513,VALID,353,VALID,1.00508,
2008-11-06, 02:55:05,VALID,1001.83,VALID,0,VALID,91.6763,VALID,0.100563,VALID,24.0929,VALID,357,VALID,1.05586,
2008-11-06, 02:56:05,VALID,1001.8,VALID,0,VALID,92.0501,VALID,0.100563,VALID,24.0539,VALID,356,VALID,0.911328,
2008-11-06, 02:57:05,VALID,1001.8,VALID,0,VALID,92.3705,VALID,0.100563,VALID,24.015,VALID,354,VALID,0.563281,
2008-11-06, 02:58:05,VALID,1001.84,VALID,0,VALID,92.5993,VALID,0,VALID,23.9761,VALID,358,VALID,0.410937,
2008-11-06, 02:59:05,VALID,1001.99,VALID,0,VALID,92.6985,VALID,0.100563,VALID,23.9371,VALID,62,VALID,0.680078,
2008-11-06, 03:00:05,VALID,1002.09,VALID,0,VALID,92.7062,VALID,0,VALID,23.8964,VALID,77,VALID,0.65,
2008-11-06, 03:01:05,VALID,1002.25,VALID,0,VALID,92.7596,VALID,0,VALID,23.9159,VALID,97,VALID,1.22852,
2008-11-06, 03:02:05,VALID,1002.31,VALID,0.5,VALID,92.7977,VALID,0.100563,VALID,23.9566,VALID,111,VALID,1.47969,
2008-11-06, 03:03:05,VALID,1002.37,VALID,1,VALID,92.6222,VALID,0.100563,VALID,23.8575,VALID,113,VALID,1.78867,
2008-11-06, 03:04:05,VALID,1002.57,VALID,1.5,VALID,93.0647,VALID,0,VALID,23.8009,VALID,144,VALID,4.22539,
2008-11-06, 03:05:05,VALID,1002.32,VALID,2,VALID,93.9878,VALID,0.100563,VALID,23.7991,VALID,152,VALID,3.30859,
2008-11-06, 03:06:05,VALID,1002.39,VALID,1.5,VALID,93.5606,VALID,0,VALID,23.7425,VALID,137,VALID,4.98008,
2008-11-06, 03:07:05,VALID,1002.47,VALID,1.5,VALID,94.2396,VALID,0,VALID,23.7407,VALID,132,VALID,3.87188,
2008-11-06, 03:08:05,VALID,1002.39,VALID,2.5,VALID,94.56,VALID,0.100563,VALID,23.7619,VALID,123,VALID,2.69375,
2008-11-06, 03:09:05,VALID,1002,VALID,2,VALID,94.7583,VALID,0,VALID,23.7619,VALID,320,VALID,1.47812,
2008-11-06, 03:10:05,VALID,1002,VALID,0.5,VALID,94.4608,VALID,0.100563,VALID,23.7212,VALID,281,VALID,1.87773,
2008-11-06, 03:11:05,VALID,1002.15,VALID,0,VALID,94.7736,VALID,0.100563,VALID,23.7619,VALID,111,VALID,2.28945,
2008-11-06, 03:12:05,VALID,1002.18,VALID,0.5,VALID,94.9109,VALID,0.100563,VALID,23.7212,VALID,98,VALID,1.34805,
2008-11-06, 03:13:05,VALID,1002.16,VALID,0,VALID,95.0558,VALID,0,VALID,23.7212,VALID,121,VALID,0.601563,
2008-11-06, 03:14:05,VALID,1002.22,VALID,0,VALID,95.2008,VALID,0,VALID,23.7017,VALID,111,VALID,0.573438,
2008-11-06, 03:15:05,VALID,1002.21,VALID,0.5,VALID,95.3,VALID,0,VALID,23.723,VALID,90,VALID,0.815234,
2008-11-06, 03:16:05,VALID,1002.1,VALID,1.5,VALID,95.3991,VALID,0,VALID,23.723,VALID,4,VALID,0.695313,
2008-11-06, 03:17:05,VALID,1002.09,VALID,0,VALID,95.506,VALID,0.100563,VALID,23.7212,VALID,6,VALID,1.06133,
2008-11-06, 03:18:05,VALID,1002.11,VALID,0,VALID,95.567,VALID,0.100563,VALID,23.723,VALID,29,VALID,1.55352,
2008-11-06, 03:19:05,VALID,1002.1,VALID,0,VALID,95.6051,VALID,0.100563,VALID,23.7017,VALID,23,VALID,0.710547,
2008-11-06, 03:20:05,VALID,1002.12,VALID,0,VALID,95.6509,VALID,0,VALID,23.7425,VALID,31,VALID,0.771094,
2008-11-06, 03:21:05,VALID,1002.11,VALID,0,VALID,95.7119,VALID,0.100563,VALID,23.7212,VALID,63,VALID,0.216016,
2008-11-06, 03:22:05,VALID,1002.09,VALID,0,VALID,95.7272,VALID,0,VALID,23.7425,VALID,60,VALID,0.249609,
2008-11-06, 03:23:05,VALID,1002.11,VALID,0,VALID,95.7577,VALID,0,VALID,23.7425,VALID,62,VALID,0.409766,
2008-11-06, 03:24:05,VALID,1002.06,VALID,0,VALID,95.7959,VALID,0.100563,VALID,23.7425,VALID,110,VALID,0.48125,
2008-11-06, 03:25:05,VALID,1002.03,VALID,0,VALID,95.8264,VALID,0.100563,VALID,23.7212,VALID,110,VALID,0.0742188,
2008-11-06, 03:26:05,VALID,1001.99,VALID,0,VALID,95.8645,VALID,0.100563,VALID,23.7212,VALID,110,VALID,0,
2008-11-06, 03:27:05,VALID,1001.96,VALID,0,VALID,95.8493,VALID,0,VALID,23.7407,VALID,110,VALID,0.330469,
2008-11-06, 03:28:05,VALID,1001.94,VALID,0,VALID,95.895,VALID,0.100563,VALID,23.7407,VALID,108,VALID,0.466406,
2008-11-06, 03:29:05,VALID,1001.94,VALID,0,VALID,95.9255,VALID,0,VALID,23.7814,VALID,107,VALID,0.382031,
2008-11-06, 03:30:05,VALID,1001.96,VALID,0,VALID,95.9255,VALID,0.100563,VALID,23.7407,VALID,107,VALID,0.378516,
2008-11-06, 03:31:05,VALID,1001.95,VALID,0,VALID,95.9332,VALID,0,VALID,23.7425,VALID,107,VALID,0.0859375,
2008-11-06, 03:32:05,VALID,1001.95,VALID,0,VALID,95.9179,VALID,0,VALID,23.7425,VALID,107,VALID,0.0359375,
2008-11-06, 03:33:05,VALID,1001.99,VALID,0,VALID,95.9332,VALID,0,VALID,23.723,VALID,107,VALID,0.102344,
2008-11-06, 03:34:05,VALID,1001.97,VALID,0,VALID,95.9408,VALID,0,VALID,23.7425,VALID,107,VALID,0.204297,
2008-11-06, 03:35:05,VALID,1001.96,VALID,0,VALID,95.9408,VALID,0,VALID,23.7017,VALID,107,VALID,0.266797,
2008-11-06, 03:36:05,VALID,1001.97,VALID,0,VALID,95.9408,VALID,0.100563,VALID,23.6823,VALID,77,VALID,0.560938,
2008-11-06, 03:37:05,VALID,1001.94,VALID,0,VALID,95.9713,VALID,0.100563,VALID,23.7035,VALID,37,VALID,0.496875,
2008-11-06, 03:38:05,VALID,1001.94,VALID,0,VALID,95.9942,VALID,0,VALID,23.7035,VALID,37,VALID,0.307031,
2008-11-06, 03:39:05,VALID,1001.95,VALID,0,VALID,96.0171,VALID,0,VALID,23.7035,VALID,36,VALID,0.425391,
2008-11-06, 03:40:05,VALID,1001.93,VALID,0,VALID,96.0095,VALID,0,VALID,23.7035,VALID,34,VALID,0.482422,
2008-11-06, 03:41:05,VALID,1001.98,VALID,0,VALID,96.0247,VALID,0,VALID,23.6841,VALID,33,VALID,0.490625,
2008-11-06, 03:42:05,VALID,1002,VALID,0,VALID,96.0171,VALID,0,VALID,23.6628,VALID,19,VALID,0.522656,
2008-11-06, 03:43:05,VALID,1001.99,VALID,0,VALID,96.0171,VALID,0,VALID,23.6646,VALID,7,VALID,0.646875,
2008-11-06, 03:44:05,VALID,1002.03,VALID,0,VALID,96.0323,VALID,0.100563,VALID,23.6239,VALID,3,VALID,0.507422,